| time (UTC) | temp F | wind direction | speed MPH | gust MPH | rain 1hr in | rain 24hr in | rain mn in | humidity % | barometer mb |
| 20260905134016 | 74 | 0.0 | 2.0 | 0.00 | 0.01 | 0.00 | 91 | 1015.0 | |
| 20260905133016 | 73 | 0.0 | 0.0 | 0.00 | 0.01 | 0.00 | 92 | 1015.1 | |
| 20260905132016 | 73 | 0.0 | 0.0 | 0.00 | 0.01 | 0.00 | 92 | 1015.4 | |
| 20260905131016 | 73 | 0.0 | 1.0 | 0.00 | 0.01 | 0.00 | 92 | 1015.1 | |
| 20260905130016 | 72 | 0.0 | 1.0 | 0.00 | 0.01 | 0.00 | 92 | 1014.7 | |
| 20260905125016 | 72 | 0.0 | 1.0 | 0.00 | 0.01 | 0.00 | 92 | 1014.7 | |
| 20260905124017 | 72 | 0.0 | 2.0 | 0.00 | 0.01 | 0.00 | 92 | 1014.5 | |
| 20260905123017 | 72 | 0.0 | 1.0 | 0.00 | 0.01 | 0.00 | 91 | 1014.3 | |
| 20260905122017 | 72 | 0.0 | 1.0 | 0.00 | 0.01 | 0.00 | 91 | 1014.1 | |
| 20260905121016 | 72 | 0.0 | 1.0 | 0.00 | 0.01 | 0.00 | 91 | 1014.1 | |
| 20260905120016 | 72 | 0.0 | 1.0 | 0.00 | 0.01 | 0.00 | 92 | 1014.0 | |
| 20260905115016 | 73 | 0.0 | 1.0 | 0.00 | 0.01 | 0.00 | 92 | 1013.8 | |
| 20260905114017 | 73 | 0.0 | 1.0 | 0.00 | 0.01 | 0.00 | 91 | 1013.7 | |
| 20260905113016 | 73 | 0.0 | 1.0 | 0.00 | 0.01 | 0.00 | 91 | 1013.6 | |
| 20260905112017 | 73 | 0.0 | 1.0 | 0.00 | 0.01 | 0.00 | 91 | 1013.5 | |
| 20260905111017 | 73 | 0.0 | 1.0 | 0.00 | 0.01 | 0.00 | 92 | 1013.4 | |
| 20260905110017 | 73 | 0.0 | 1.0 | 0.00 | 0.01 | 0.00 | 92 | 1013.4 | |
| 20260905105016 | 73 | 0.0 | 0.0 | 0.00 | 0.01 | 0.00 | 92 | 1013.4 | |
| 20260905104016 | 73 | 0.0 | 1.0 | 0.00 | 0.01 | 0.00 | 92 | 1013.2 | |
| 20260905103017 | 73 | 0.0 | 0.0 | 0.00 | 0.01 | 0.00 | 91 | 1013.4 | |
| 20260905102016 | 73 | 0.0 | 0.0 | 0.00 | 0.01 | 0.00 | 91 | 1013.3 | |
| 20260905101016 | 74 | 0.0 | 0.0 | 0.00 | 0.01 | 0.00 | 91 | 1013.3 | |
| 20260905100016 | 74 | 0.0 | 0.0 | 0.00 | 0.01 | 0.00 | 91 | 1013.4 | |
| 20260905095016 | 74 | 0.0 | 0.0 | 0.00 | 0.01 | 0.00 | 91 | 1013.3 | |
| 20260905094017 | 74 | 0.0 | 0.0 | 0.00 | 0.01 | 0.00 | 92 | 1013.3 | |
| 20260905093016 | 74 | 0.0 | 0.0 | 0.00 | 0.01 | 0.00 | 92 | 1013.1 | |
| 20260905092016 | 74 | 0.0 | 0.0 | 0.00 | 0.01 | 0.00 | 92 | 1013.0 | |
| 20260905091016 | 74 | 0.0 | 0.0 | 0.00 | 0.01 | 0.00 | 91 | 1012.9 | |
| 20260905090016 | 74 | 0.0 | 0.0 | 0.00 | 0.01 | 0.00 | 91 | 1012.9 | |
| 20260905085016 | 74 | 0.0 | 0.0 | 0.00 | 0.01 | 0.00 | 91 | 1013.0 | |
| 20260905084017 | 74 | 0.0 | 0.0 | 0.00 | 0.01 | 0.00 | 91 | 1013.0 | |
| 20260905083016 | 74 | 0.0 | 0.0 | 0.00 | 0.01 | 0.00 | 91 | 1013.0 | |
| 20260905082016 | 74 | 0.0 | 0.0 | 0.00 | 0.01 | 0.00 | 91 | 1013.1 | |
| 20260905081017 | 74 | 0.0 | 0.0 | 0.00 | 0.01 | 0.00 | 91 | 1013.0 | |
| 20260905080017 | 74 | 0.0 | 0.0 | 0.00 | 0.01 | 0.00 | 91 | 1013.0 | |
| 20260905075017 | 74 | 0.0 | 0.0 | 0.00 | 0.01 | 0.00 | 91 | 1012.9 | |
| 20260905074017 | 74 | 0.0 | 0.0 | 0.00 | 0.01 | 0.00 | 91 | 1012.8 | |
| 20260905073016 | 74 | 0.0 | 0.0 | 0.00 | 0.01 | 0.00 | 91 | 1012.9 | |
| 20260905072016 | 74 | 0.0 | 0.0 | 0.00 | 0.01 | 0.00 | 91 | 1012.8 | |
| 20260905071016 | 74 | 0.0 | 0.0 | 0.00 | 0.01 | 0.00 | 91 | 1012.9 | |
| 20260905070016 | 74 | 0.0 | 0.0 | 0.00 | 0.01 | 0.00 | 91 | 1012.9 | |
| 20260905065017 | 74 | 0.0 | 0.0 | 0.00 | 0.01 | 0.00 | 91 | 1012.9 | |
| 20260905064016 | 74 | 0.0 | 0.0 | 0.00 | 0.01 | 0.00 | 91 | 1012.9 | |
| 20260905063016 | 74 | 0.0 | 0.0 | 0.00 | 0.01 | 0.00 | 90 | 1013.0 | |
| 20260905062016 | 74 | 0.0 | 0.0 | 0.00 | 0.01 | 0.00 | 90 | 1013.1 | |
| 20260905061017 | 74 | 0.0 | 0.0 | 0.00 | 0.01 | 0.00 | 90 | 1013.1 | |
| 20260905060016 | 74 | 0.0 | 0.0 | 0.00 | 0.01 | 0.00 | 90 | 1013.2 | |
| 20260905055016 | 74 | 0.0 | 0.0 | 0.00 | 0.01 | 0.00 | 90 | 1013.4 | |
| 20260905054016 | 74 | 0.0 | 0.0 | 0.00 | 0.01 | 0.00 | 89 | 1013.4 | |
| 20260905053016 | 74 | 0.0 | 0.0 | 0.00 | 0.01 | 0.00 | 89 | 1013.4 | |
| 20260905052017 | 74 | 0.0 | 0.0 | 0.00 | 0.01 | 0.00 | 89 | 1013.3 | |
| 20260905051016 | 75 | 0.0 | 0.0 | 0.00 | 0.01 | 0.00 | 89 | 1013.2 | |
| 20260905050016 | 75 | 0.0 | 0.0 | 0.00 | 0.01 | 0.01 | 88 | 1013.2 | |
| 20260905045017 | 75 | 0.0 | 0.0 | 0.00 | 0.01 | 0.01 | 88 | 1013.2 | |
| 20260905044017 | 75 | 0.0 | 0.0 | 0.00 | 0.01 | 0.01 | 87 | 1013.2 | |
| 20260905043017 | 75 | 0.0 | 0.0 | 0.01 | 0.01 | 0.01 | 87 | 1013.3 | |
| 20260905042017 | 75 | 0.0 | 0.0 | 0.01 | 0.01 | 0.01 | 86 | 1013.3 | |
| 20260905041017 | 75 | 0.0 | 0.0 | 0.01 | 0.01 | 0.01 | 86 | 1013.3 | |
| 20260905040017 | 76 | 0.0 | 1.0 | 0.01 | 0.01 | 0.01 | 86 | 1013.3 | |
| 20260905035017 | 76 | 0.0 | 0.0 | 0.01 | 0.01 | 0.01 | 85 | 1013.0 | |
| 20260905034017 | 77 | 0.0 | 0.0 | 0.01 | 0.01 | 0.01 | 84 | 1013.0 | |
| 20260905033017 | 77 | 0.0 | 1.0 | 0.00 | 0.00 | 0.00 | 82 | 1013.2 | |
| 20260905032017 | 78 | 0.0 | 0.0 | 0.00 | 0.00 | 0.00 | 80 | 1013.5 | |
| 20260905031017 | 79 | 0.0 | 1.0 | 0.00 | 0.00 | 0.00 | 79 | 1013.6 | |
| 20260905030017 | 80 | 0.0 | 3.0 | 0.00 | 0.00 | 0.00 | 78 | 1013.9 | |
| 20260905025017 | 81 | 0.0 | 1.0 | 0.00 | 0.00 | 0.00 | 75 | 1014.0 | |
| 20260905024017 | 82 | 0.0 | 0.0 | 0.00 | 0.00 | 0.00 | 75 | 1013.9 | |
| 20260905023017 | 82 | 0.0 | 1.0 | 0.00 | 0.00 | 0.00 | 75 | 1013.8 | |
| 20260905022017 | 83 | 0.0 | 1.0 | 0.00 | 0.00 | 0.00 | 77 | 1013.9 | |
| 20260905021017 | 83 | 0.0 | 0.0 | 0.00 | 0.00 | 0.00 | 77 | 1013.6 | |
| 20260905020017 | 83 | 0.0 | 1.0 | 0.00 | 0.00 | 0.00 | 77 | 1013.5 | |
| 20260905015017 | 83 | 0.0 | 0.0 | 0.00 | 0.00 | 0.00 | 77 | 1013.6 | |
| 20260905014017 | 84 | 0.0 | 0.0 | 0.00 | 0.00 | 0.00 | 76 | 1013.5 | |
| 20260905013017 | 84 | 0.0 | 0.0 | 0.00 | 0.00 | 0.00 | 76 | 1013.3 | |
| 20260905012017 | 84 | 0.0 | 0.0 | 0.00 | 0.00 | 0.00 | 74 | 1013.1 | |
| 20260905011017 | 85 | 0.0 | 0.0 | 0.00 | 0.00 | 0.00 | 73 | 1012.8 | |
| 20260905010017 | 85 | 0.0 | 2.0 | 0.00 | 0.00 | 0.00 | 73 | 1012.4 | |
| 20260905005017 | 85 | 203 | 2.0 | 4.0 | 0.00 | 0.00 | 0.00 | 72 | 1012.3 |
| 20260905004017 | 86 | 180 | 1.0 | 4.0 | 0.00 | 0.00 | 0.00 | 71 | 1012.3 |
| 20260905003017 | 86 | 0.0 | 2.0 | 0.00 | 0.00 | 0.00 | 71 | 1012.6 | |
| 20260905002017 | 86 | 0.0 | 1.0 | 0.00 | 0.00 | 0.00 | 70 | 1012.6 | |
| 20260905001017 | 87 | 0.0 | 1.0 | 0.00 | 0.00 | 0.00 | 70 | 1012.5 | |
| 20260905000017 | 87 | 203 | 1.0 | 2.0 | 0.00 | 0.00 | 0.00 | 69 | 1012.3 |
| 20260904235017 | 88 | 203 | 1.0 | 4.0 | 0.00 | 0.00 | 0.00 | 68 | 1012.4 |
| 20260904234017 | 88 | 203 | 1.0 | 4.0 | 0.00 | 0.00 | 0.00 | 67 | 1012.3 |
| 20260904233017 | 88 | 225 | 2.0 | 6.0 | 0.00 | 0.00 | 0.00 | 66 | 1012.1 |
| 20260904232017 | 89 | 225 | 2.0 | 4.0 | 0.00 | 0.00 | 0.00 | 65 | 1012.3 |
| 20260904231017 | 89 | 225 | 2.0 | 5.0 | 0.00 | 0.00 | 0.00 | 65 | 1012.4 |
| 20260904230017 | 89 | 225 | 2.0 | 7.0 | 0.00 | 0.00 | 0.00 | 64 | 1012.5 |
| 20260904225017 | 90 | 203 | 1.0 | 4.0 | 0.00 | 0.00 | 0.00 | 64 | 1012.7 |
| 20260904224017 | 90 | 203 | 3.0 | 7.0 | 0.00 | 0.00 | 0.00 | 61 | 1012.7 |
| 20260904223017 | 90 | 225 | 2.0 | 6.0 | 0.00 | 0.00 | 0.00 | 61 | 1012.7 |
| 20260904222017 | 90 | 225 | 2.0 | 8.0 | 0.00 | 0.00 | 0.00 | 60 | 1012.7 |
| 20260904221017 | 90 | 203 | 3.0 | 8.0 | 0.00 | 0.00 | 0.00 | 60 | 1012.6 |
| 20260904220017 | 90 | 203 | 2.0 | 6.0 | 0.00 | 0.00 | 0.00 | 60 | 1012.7 |
| 20260904215017 | 90 | 180 | 3.0 | 9.0 | 0.00 | 0.00 | 0.00 | 60 | 1012.7 |
| 20260904214017 | 90 | 203 | 4.0 | 9.0 | 0.00 | 0.00 | 0.00 | 61 | 1012.6 |
| 20260904213017 | 90 | 225 | 4.0 | 9.0 | 0.00 | 0.00 | 0.00 | 59 | 1012.5 |
| 20260904212017 | 91 | 203 | 2.0 | 6.0 | 0.00 | 0.00 | 0.00 | 60 | 1012.5 |
| 20260904211017 | 90 | 225 | 4.0 | 8.0 | 0.00 | 0.00 | 0.00 | 59 | 1012.4 |
| 20260904210017 | 91 | 180 | 3.0 | 6.0 | 0.00 | 0.00 | 0.00 | 59 | 1012.3 |
| 20260904205017 | 91 | 225 | 2.0 | 5.0 | 0.00 | 0.00 | 0.00 | 59 | 1012.4 |
| 20260904204017 | 91 | 248 | 2.0 | 8.0 | 0.00 | 0.00 | 0.00 | 58 | 1012.4 |
| 20260904203017 | 90 | 180 | 3.0 | 7.0 | 0.00 | 0.00 | 0.00 | 59 | 1012.5 |
| 20260904202017 | 90 | 180 | 4.0 | 11.0 | 0.00 | 0.00 | 0.00 | 59 | 1012.6 |
| 20260904201017 | 90 | 203 | 4.0 | 10.0 | 0.00 | 0.00 | 0.00 | 57 | 1012.8 |
| 20260904200017 | 90 | 225 | 3.0 | 8.0 | 0.00 | 0.00 | 0.00 | 58 | 1013.1 |
| 20260904195017 | 90 | 203 | 3.0 | 6.0 | 0.00 | 0.00 | 0.00 | 57 | 1013.2 |
| 20260904194017 | 90 | 203 | 3.0 | 7.0 | 0.00 | 0.00 | 0.00 | 59 | 1013.4 |
| 20260904193017 | 89 | 203 | 3.0 | 6.0 | 0.00 | 0.00 | 0.00 | 58 | 1013.7 |
| 20260904192017 | 88 | 203 | 2.0 | 7.0 | 0.00 | 0.00 | 0.00 | 59 | 1013.8 |
| 20260904191017 | 88 | 158 | 2.0 | 6.0 | 0.00 | 0.00 | 0.00 | 60 | 1013.9 |
| 20260904190017 | 87 | 158 | 3.0 | 8.0 | 0.00 | 0.00 | 0.00 | 61 | 1014.1 |
| 20260904185017 | 86 | 180 | 2.0 | 7.0 | 0.00 | 0.00 | 0.00 | 62 | 1014.3 |
| 20260904184017 | 85 | 135 | 2.0 | 5.0 | 0.00 | 0.00 | 0.00 | 67 | 1014.4 |
| 20260904183016 | 83 | 158 | 2.0 | 4.0 | 0.00 | 0.00 | 0.00 | 65 | 1014.6 |
| 20260904182017 | 82 | 158 | 3.0 | 6.0 | 0.00 | 0.00 | 0.00 | 68 | 1014.6 |
| 20260904181017 | 82 | 135 | 2.0 | 4.0 | 0.00 | 0.00 | 0.00 | 69 | 1014.6 |
| 20260904180017 | 81 | 158 | 3.0 | 6.0 | 0.00 | 0.00 | 0.00 | 70 | 1014.5 |
| 20260904175017 | 81 | 135 | 4.0 | 8.0 | 0.00 | 0.00 | 0.00 | 69 | 1014.5 |
| 20260904174017 | 81 | 135 | 4.0 | 8.0 | 0.00 | 0.00 | 0.00 | 70 | 1014.8 |
| 20260904173017 | 81 | 135 | 3.0 | 8.0 | 0.00 | 0.00 | 0.00 | 69 | 1015.2 |
| 20260904172017 | 81 | 90 | 2.0 | 3.0 | 0.00 | 0.00 | 0.00 | 72 | 1015.9 |
| 20260904171017 | 81 | 90 | 2.0 | 4.0 | 0.00 | 0.00 | 0.00 | 72 | 1016.4 |
| 20260904170017 | 80 | 90 | 1.0 | 4.0 | 0.00 | 0.00 | 0.00 | 74 | 1017.0 |
| 20260904165017 | 79 | 90 | 1.0 | 3.0 | 0.00 | 0.00 | 0.00 | 75 | 1017.1 |
| 20260904164017 | 79 | 45 | 1.0 | 3.0 | 0.00 | 0.00 | 0.00 | 76 | 1017.0 |
| 20260904163017 | 78 | 113 | 4.0 | 8.0 | 0.00 | 0.00 | 0.00 | 77 | 1016.6 |
| 20260904162017 | 78 | 90 | 3.0 | 9.0 | 0.00 | 0.00 | 0.00 | 78 | 1016.8 |
| 20260904161017 | 78 | 90 | 2.0 | 4.0 | 0.00 | 0.00 | 0.00 | 77 | 1016.9 |
| 20260904160017 | 78 | 45 | 2.0 | 4.0 | 0.00 | 0.00 | 0.00 | 79 | 1017.0 |
| 20260904155017 | 78 | 45 | 2.0 | 4.0 | 0.00 | 0.02 | 0.00 | 79 | 1016.8 |
| 20260904154017 | 78 | 45 | 2.0 | 6.0 | 0.00 | 0.11 | 0.00 | 78 | 1016.8 |
| 20260904153017 | 79 | 68 | 1.0 | 3.0 | 0.00 | 0.25 | 0.00 | 78 | 1016.7 |
| 20260904152017 | 79 | 45 | 2.0 | 3.0 | 0.00 | 0.25 | 0.00 | 78 | 1016.7 |
| 20260904151017 | 79 | 45 | 1.0 | 3.0 | 0.00 | 0.25 | 0.00 | 79 | 1016.7 |
| 20260904150017 | 78 | 90 | 1.0 | 3.0 | 0.00 | 0.25 | 0.00 | 81 | 1015.8 |
| 20260904145017 | 78 | 90 | 2.0 | 4.0 | 0.00 | 0.25 | 0.00 | 82 | 1015.8 |
| 20260904144017 | 77 | 45 | 1.0 | 3.0 | 0.00 | 0.25 | 0.00 | 82 | 1015.5 |
| 20260904143016 | 77 | 90 | 2.0 | 6.0 | 0.00 | 0.25 | 0.00 | 82 | 1015.4 |
| 20260904142017 | 77 | 90 | 1.0 | 4.0 | 0.00 | 0.25 | 0.00 | 83 | 1015.4 |
| 20260904141017 | 77 | 90 | 1.0 | 3.0 | 0.00 | 0.25 | 0.00 | 84 | 1015.5 |
| 20260904140017 | 76 | 0.0 | 2.0 | 0.00 | 0.25 | 0.00 | 84 | 1015.4 | |
| 20260904135017 | 76 | 68 | 1.0 | 4.0 | 0.00 | 0.25 | 0.00 | 84 | 1015.4 |